Location: Baia Mare
(47.6567°N, 23.5850°E)
Time: 08:07:31
(UTC+03:00)

ISS - Pass Details

Date: 25 May 2018
Orbit: 402 x 407 km, 51.6° (Epoch: 21 May)

Event Time Altitude Azimuth Distance (km) Brightness Sun altitude
Rises 01:29:58 0° 292° (WNW) 2,321 0.3 -21.4°
Maximum altitude 01:35:18 57° 16° (NNE) 483 -3.2 -21.4°
Enters shadow 01:35:40 52° 48° (NE) 508 -3.2 -21.4°
